Weather History for Key West NAF, FL

Change the Weather History Date:

Monday, August 5, 2013

  Actual Average Record
Temperature  
Mean Temperature 84 °F -  
Max Temperature 91 °F 89 °F 95 °F (2011)
Min Temperature 77 °F 79 °F 71 °F (1985)
Cooling Degree Days 18    
Growing Degree Days 34 (Base 50)    
Moisture  
Dew Point 75 °F    
Average Humidity 73    
Maximum Humidity 90    
Minimum Humidity 57    
Precipitation  
Precipitation 0.00 in - - ()
Sea Level Pressure  
Sea Level Pressure 30.03 in    
Wind  
Wind Speed 3 mph (NW)    
Max Wind Speed 8 mph    
Max Gust Speed -    
Visibility 10 miles    
Events      
Averages and records for this station are not official NWS values.
T = Trace of Precipitation, MM = Missing Value Source: NWS Daily Summary

Daily Weather History Graph

Daily Weather History Graph

Search for Another Location

Airport:

Trip Planner

Search our weather history database for the weather conditions in past years. The results will help you decide how hot, cold, wet, or windy it might be!

Date:

Astronomy

Aug. 05, 2013 Rise Set
Actual Time 6:57 AM EDT 8:08 PM EDT
Civil Twilight 6:32 AM EDT 8:32 PM EDT
Nautical Twilight 6:04 AM EDT 9:00 PM EDT
Astronomical Twilight 5:34 AM EDT 9:30 PM EDT
Moon 5:49 AM EDT (8/5) 7:11 PM EDT (8/5)
Length of Visible Light 13h 59m
Length of Day
13h 11m
Waning Crescent, 1% of the Moon is Illuminated
Aug 5
Waning Crescent
Aug 6
New
Aug 14
First Quarter
Aug 20
Full
Aug 28
Last Quarter

Hourly Weather History & Observations

Time (EDT) Temp. Heat Index Dew Point Humidity Pressure Visibility Wind Dir Wind Speed Gust Speed Precip Events Conditions
12:53 AM 82.0 °F 88.6 °F 75.0 °F 79% 30.08 in 10.0 mi Calm Calm - N/A   Clear
1:53 AM 82.0 °F 88.6 °F 75.0 °F 79% 30.06 in 10.0 mi Calm Calm - N/A   Clear
2:53 AM 79.0 °F - 75.0 °F 88% 30.04 in 10.0 mi Calm Calm - N/A   Clear
3:53 AM 79.0 °F - 73.9 °F 84% 30.02 in 10.0 mi Calm Calm - N/A   Clear
4:53 AM 78.1 °F - 73.9 °F 87% 30.01 in 10.0 mi Calm Calm - N/A   Clear
5:53 AM 77.0 °F - 73.9 °F 90% 30.02 in 10.0 mi Calm Calm - N/A   Scattered Clouds
6:53 AM 78.1 °F - 73.9 °F 87% 30.03 in 10.0 mi Calm Calm - N/A   Mostly Cloudy
7:53 AM 82.9 °F 90.8 °F 75.9 °F 79% 30.04 in 10.0 mi Calm Calm - N/A   Mostly Cloudy
8:53 AM 84.9 °F 93.3 °F 75.0 °F 72% 30.05 in 10.0 mi WNW 3.5 mph - N/A   Scattered Clouds
9:53 AM 87.1 °F 96.3 °F 75.0 °F 67% 30.07 in 10.0 mi NNW 5.8 mph - N/A   Mostly Cloudy
10:53 AM 89.1 °F 100.2 °F 75.9 °F 65% 30.07 in 10.0 mi NNW 8.1 mph - N/A   Mostly Cloudy
11:53 AM 90.0 °F 101.3 °F 75.9 °F 63% 30.07 in 10.0 mi NNW 8.1 mph - N/A   Mostly Cloudy
12:53 PM 89.1 °F 99.1 °F 75.0 °F 63% 30.06 in 10.0 mi WNW 5.8 mph - N/A   Mostly Cloudy
1:53 PM 90.0 °F 101.3 °F 75.9 °F 63% 30.05 in 10.0 mi WNW 8.1 mph - N/A   Mostly Cloudy
2:53 PM 87.1 °F 94.5 °F 73.0 °F 63% 30.02 in 10.0 mi WNW 6.9 mph - N/A   Mostly Cloudy
3:53 PM 89.1 °F 96.0 °F 72.0 °F 57% 30.01 in 10.0 mi Variable 5.8 mph - N/A   Mostly Cloudy
4:53 PM 87.1 °F 94.5 °F 73.0 °F 63% 30.01 in 10.0 mi Calm Calm - N/A   Mostly Cloudy
5:53 PM 84.9 °F 91.4 °F 73.0 °F 67% 29.99 in 10.0 mi West 5.8 mph - N/A   Mostly Cloudy
6:53 PM 86.0 °F 93.8 °F 73.9 °F 67% 30.00 in 10.0 mi WNW 8.1 mph - N/A   Mostly Cloudy
7:53 PM 84.9 °F 92.1 °F 73.9 °F 69% 30.00 in 10.0 mi WNW 8.1 mph - N/A   Mostly Cloudy
8:53 PM 84.9 °F 93.3 °F 75.0 °F 72% 30.01 in 10.0 mi NW 6.9 mph - N/A   Mostly Cloudy
9:53 PM 84.9 °F 94.1 °F 75.9 °F 74% 30.01 in 10.0 mi WNW 6.9 mph - N/A   Overcast
10:53 PM 84.0 °F 92.6 °F 75.9 °F 76% 30.01 in 10.0 mi WNW 6.9 mph - N/A   Clear
11:53 PM 84.9 °F 94.1 °F 75.9 °F 74% 30.01 in 10.0 mi NW 8.1 mph - N/A   Partly Cloudy